<?xml version="1.0"?>
<gpx xmlns="http://www.topografix.com/GPX/1/1" xmlns:xsi="http://www.w3.org/2001/XMLSchema-instance" version="1.1" creator="GPX RubyGem 1.0.0 -- http://dougfales.github.io/gpx/" xsi:schemaLocation="http://www.topografix.com/GPX/1/1 http://www.topografix.com/GPX/1/1/gpx.xsd">
  <metadata>
    <name/>
    <time>2026-05-09T21:42:30+00:00</time>
    <bound minlat="90.0" minlon="180.0" maxlat="-90.0" maxlon="-180.0"/>
  </metadata>
  <trk>
    <name/>
    <trkseg>
      <trkpt lat="49.420488" lon="8.19106">
        <time>1970-01-01T00:00:00+00:00</time>
        <ele>122.0</ele>
      </trkpt>
      <trkpt lat="49.419784" lon="8.1913">
        <time>1970-01-01T00:00:00+00:00</time>
        <ele>124.0</ele>
      </trkpt>
      <trkpt lat="49.419745" lon="8.190234">
        <time>1970-01-01T00:00:00+00:00</time>
        <ele>123.0</ele>
      </trkpt>
      <trkpt lat="49.419486" lon="8.188806">
        <time>1970-01-01T00:00:00+00:00</time>
        <ele>126.0</ele>
      </trkpt>
      <trkpt lat="49.419309" lon="8.18689">
        <time>1970-01-01T00:00:00+00:00</time>
        <ele>128.0</ele>
      </trkpt>
      <trkpt lat="49.419053" lon="8.185504">
        <time>1970-01-01T00:00:00+00:00</time>
        <ele>133.0</ele>
      </trkpt>
      <trkpt lat="49.418887" lon="8.184084">
        <time>1970-01-01T00:00:00+00:00</time>
        <ele>137.0</ele>
      </trkpt>
      <trkpt lat="49.418695" lon="8.184077">
        <time>1970-01-01T00:00:00+00:00</time>
        <ele>139.0</ele>
      </trkpt>
      <trkpt lat="49.418195" lon="8.183821">
        <time>1970-01-01T00:00:00+00:00</time>
        <ele>142.0</ele>
      </trkpt>
      <trkpt lat="49.417945" lon="8.18383">
        <time>1970-01-01T00:00:00+00:00</time>
        <ele>144.0</ele>
      </trkpt>
      <trkpt lat="49.417515" lon="8.183826">
        <time>1970-01-01T00:00:00+00:00</time>
        <ele>146.0</ele>
      </trkpt>
      <trkpt lat="49.417438" lon="8.183785">
        <time>1970-01-01T00:00:00+00:00</time>
        <ele>146.0</ele>
      </trkpt>
      <trkpt lat="49.41699" lon="8.183419">
        <time>1970-01-01T00:00:00+00:00</time>
        <ele>149.0</ele>
      </trkpt>
      <trkpt lat="49.417009" lon="8.182006">
        <time>1970-01-01T00:00:00+00:00</time>
        <ele>153.0</ele>
      </trkpt>
      <trkpt lat="49.417078" lon="8.181251">
        <time>1970-01-01T00:00:00+00:00</time>
        <ele>155.0</ele>
      </trkpt>
      <trkpt lat="49.417199" lon="8.180833">
        <time>1970-01-01T00:00:00+00:00</time>
        <ele>156.0</ele>
      </trkpt>
      <trkpt lat="49.41724" lon="8.180765">
        <time>1970-01-01T00:00:00+00:00</time>
        <ele>156.0</ele>
      </trkpt>
      <trkpt lat="49.417632" lon="8.180538">
        <time>1970-01-01T00:00:00+00:00</time>
        <ele>155.0</ele>
      </trkpt>
      <trkpt lat="49.417893" lon="8.180306">
        <time>1970-01-01T00:00:00+00:00</time>
        <ele>155.0</ele>
      </trkpt>
      <trkpt lat="49.418127" lon="8.179811">
        <time>1970-01-01T00:00:00+00:00</time>
        <ele>155.0</ele>
      </trkpt>
      <trkpt lat="49.418155" lon="8.179673">
        <time>1970-01-01T00:00:00+00:00</time>
        <ele>156.0</ele>
      </trkpt>
      <trkpt lat="49.41817" lon="8.179508">
        <time>1970-01-01T00:00:00+00:00</time>
        <ele>156.0</ele>
      </trkpt>
      <trkpt lat="49.418114" lon="8.178561">
        <time>1970-01-01T00:00:00+00:00</time>
        <ele>161.0</ele>
      </trkpt>
      <trkpt lat="49.418122" lon="8.178396">
        <time>1970-01-01T00:00:00+00:00</time>
        <ele>161.0</ele>
      </trkpt>
      <trkpt lat="49.418166" lon="8.178107">
        <time>1970-01-01T00:00:00+00:00</time>
        <ele>164.0</ele>
      </trkpt>
      <trkpt lat="49.41823" lon="8.177422">
        <time>1970-01-01T00:00:00+00:00</time>
        <ele>168.0</ele>
      </trkpt>
      <trkpt lat="49.418204" lon="8.177286">
        <time>1970-01-01T00:00:00+00:00</time>
        <ele>169.0</ele>
      </trkpt>
      <trkpt lat="49.418184" lon="8.177034">
        <time>1970-01-01T00:00:00+00:00</time>
        <ele>171.0</ele>
      </trkpt>
      <trkpt lat="49.418184" lon="8.177034">
        <time>1970-01-01T00:00:00+00:00</time>
        <ele>171.0</ele>
      </trkpt>
      <trkpt lat="49.418204" lon="8.177286">
        <time>1970-01-01T00:00:00+00:00</time>
        <ele>169.0</ele>
      </trkpt>
      <trkpt lat="49.418343" lon="8.177372">
        <time>1970-01-01T00:00:00+00:00</time>
        <ele>168.0</ele>
      </trkpt>
      <trkpt lat="49.419068" lon="8.177333">
        <time>1970-01-01T00:00:00+00:00</time>
        <ele>171.0</ele>
      </trkpt>
      <trkpt lat="49.419366" lon="8.177219">
        <time>1970-01-01T00:00:00+00:00</time>
        <ele>170.0</ele>
      </trkpt>
      <trkpt lat="49.419401" lon="8.177206">
        <time>1970-01-01T00:00:00+00:00</time>
        <ele>170.0</ele>
      </trkpt>
      <trkpt lat="49.419575" lon="8.177153">
        <time>1970-01-01T00:00:00+00:00</time>
        <ele>171.0</ele>
      </trkpt>
      <trkpt lat="49.419727" lon="8.176993">
        <time>1970-01-01T00:00:00+00:00</time>
        <ele>173.0</ele>
      </trkpt>
      <trkpt lat="49.419522" lon="8.177256">
        <time>1970-01-01T00:00:00+00:00</time>
        <ele>170.0</ele>
      </trkpt>
      <trkpt lat="49.419492" lon="8.177352">
        <time>1970-01-01T00:00:00+00:00</time>
        <ele>169.0</ele>
      </trkpt>
      <trkpt lat="49.419594" lon="8.17847">
        <time>1970-01-01T00:00:00+00:00</time>
        <ele>162.0</ele>
      </trkpt>
      <trkpt lat="49.419716" lon="8.179403">
        <time>1970-01-01T00:00:00+00:00</time>
        <ele>158.0</ele>
      </trkpt>
      <trkpt lat="49.419888" lon="8.18006">
        <time>1970-01-01T00:00:00+00:00</time>
        <ele>153.0</ele>
      </trkpt>
      <trkpt lat="49.420431" lon="8.180079">
        <time>1970-01-01T00:00:00+00:00</time>
        <ele>155.0</ele>
      </trkpt>
      <trkpt lat="49.420571" lon="8.181802">
        <time>1970-01-01T00:00:00+00:00</time>
        <ele>146.0</ele>
      </trkpt>
      <trkpt lat="49.420593" lon="8.182229">
        <time>1970-01-01T00:00:00+00:00</time>
        <ele>145.0</ele>
      </trkpt>
      <trkpt lat="49.420641" lon="8.183387">
        <time>1970-01-01T00:00:00+00:00</time>
        <ele>139.0</ele>
      </trkpt>
      <trkpt lat="49.420751" lon="8.183831">
        <time>1970-01-01T00:00:00+00:00</time>
        <ele>137.0</ele>
      </trkpt>
      <trkpt lat="49.420893" lon="8.184102">
        <time>1970-01-01T00:00:00+00:00</time>
        <ele>136.0</ele>
      </trkpt>
      <trkpt lat="49.420934" lon="8.18425">
        <time>1970-01-01T00:00:00+00:00</time>
        <ele>136.0</ele>
      </trkpt>
      <trkpt lat="49.420946" lon="8.184588">
        <time>1970-01-01T00:00:00+00:00</time>
        <ele>132.0</ele>
      </trkpt>
      <trkpt lat="49.420928" lon="8.185035">
        <time>1970-01-01T00:00:00+00:00</time>
        <ele>128.0</ele>
      </trkpt>
      <trkpt lat="49.420974" lon="8.185444">
        <time>1970-01-01T00:00:00+00:00</time>
        <ele>126.0</ele>
      </trkpt>
      <trkpt lat="49.421093" lon="8.185912">
        <time>1970-01-01T00:00:00+00:00</time>
        <ele>124.0</ele>
      </trkpt>
      <trkpt lat="49.421299" lon="8.186257">
        <time>1970-01-01T00:00:00+00:00</time>
        <ele>122.0</ele>
      </trkpt>
      <trkpt lat="49.421473" lon="8.186717">
        <time>1970-01-01T00:00:00+00:00</time>
        <ele>122.0</ele>
      </trkpt>
      <trkpt lat="49.421563" lon="8.187104">
        <time>1970-01-01T00:00:00+00:00</time>
        <ele>121.0</ele>
      </trkpt>
      <trkpt lat="49.421753" lon="8.187716">
        <time>1970-01-01T00:00:00+00:00</time>
        <ele>121.0</ele>
      </trkpt>
      <trkpt lat="49.421604" lon="8.187798">
        <time>1970-01-01T00:00:00+00:00</time>
        <ele>121.0</ele>
      </trkpt>
      <trkpt lat="49.421656" lon="8.188368">
        <time>1970-01-01T00:00:00+00:00</time>
        <ele>120.0</ele>
      </trkpt>
      <trkpt lat="49.421701" lon="8.1888">
        <time>1970-01-01T00:00:00+00:00</time>
        <ele>120.0</ele>
      </trkpt>
      <trkpt lat="49.421791" lon="8.189833">
        <time>1970-01-01T00:00:00+00:00</time>
        <ele>118.0</ele>
      </trkpt>
      <trkpt lat="49.421817" lon="8.190049">
        <time>1970-01-01T00:00:00+00:00</time>
        <ele>118.0</ele>
      </trkpt>
      <trkpt lat="49.421874" lon="8.190566">
        <time>1970-01-01T00:00:00+00:00</time>
        <ele>118.0</ele>
      </trkpt>
      <trkpt lat="49.42155" lon="8.190674">
        <time>1970-01-01T00:00:00+00:00</time>
        <ele>118.0</ele>
      </trkpt>
      <trkpt lat="49.420631" lon="8.191011">
        <time>1970-01-01T00:00:00+00:00</time>
        <ele>121.0</ele>
      </trkpt>
      <trkpt lat="49.420488" lon="8.19106">
        <time>1970-01-01T00:00:00+00:00</time>
        <ele>122.0</ele>
      </trkpt>
    </trkseg>
  </trk>
</gpx>
